Home   Weather   Oftringen   Past weeks

Flag for Switzerland Past Weather in Oftringen, Aargau, Switzerland — Yesterday and Last 2 Weeks

Now
37 °F

Chilly.


Feels Like: 34 °F
Forecast: 20 / 51 °F
Wind: 3 mph from North

Location: Wynau

Current Time: Apr 28, 2017 at 4:47:32 am

Latest Report: Apr 28, 2017 at 4:00 am


Visibility: N/A

Pressure: 29.92 "Hg

Humidity: 91%

Dew Point: 35 °F

Location of OftringenLocation

Past Weather in Oftringen — Graph

°F

Oftringen Temperature Yesterday

Maximum temperature yesterday: 42 °F (at 2:00 pm)
Minimum temperature yesterday: 38 °F (at 7:00 am)
Average temperature yesterday: 39 °F

High & Low Weather Summary for the Past Weeks

 TemperatureHumidityPressure
High68 °F (Apr 24, 5:00 pm)99% (Apr 17, 7:00 am)30.57 "Hg (Apr 17, 7:00 am)
Low25 °F (Apr 21, 6:00 am)23% (Apr 21, 7:00 pm)29.74 "Hg (Apr 25, 11:00 pm)
Average45 °F71%30.14 "Hg
* Reported Apr 13 3:00 am — Apr 28 3:00 am, Oftringen, Weather by CustomWeather, © 2017

Note: Actual official high and low records may vary slightly from our data, if they occured in-between our weather recording intervals... More about our weather records

Advertising

Oftringen Weather History for the Previous 24 Hours

Scroll right to see more
 ConditionsComfort  
Time TempWeatherWind HumidityBarometerVisibility
3:00 am
Fri, Apr 28
36 °FChilly.2 mph97%29.93 "HgN/A
2:00 am37 °FChilly.1 mph96%29.95 "HgN/A
1:00 am37 °FChilly.3 mph96%29.96 "HgN/A
12:00 am38 °FChilly.2 mph95%29.97 "HgN/A
11:00 pm
Thu, Apr 27
38 °FChilly.No wind95%29.98 "HgN/A
10:00 pm39 °FChilly.1 mph93%29.98 "HgN/A
9:00 pm39 °FChilly.2 mph92%29.98 "HgN/A
8:00 pm39 °FChilly.3 mph91%29.98 "HgN/A
7:00 pm40 °FQuite cool.3 mph89%29.97 "HgN/A
6:00 pm41 °FQuite cool.2 mph83%29.97 "HgN/A
5:00 pm40 °FQuite cool.2 mph83%29.98 "HgN/A
4:00 pm41 °FQuite cool.3 mph83%29.99 "HgN/A
3:00 pm41 °FQuite cool.2 mph77%30.00 "HgN/A
2:00 pm42 °FQuite cool.2 mph81%29.99 "HgN/A
1:00 pm40 °FChilly.3 mph82%30.01 "HgN/A
12:00 pm40 °FChilly.2 mph81%30.00 "HgN/A
11:00 am39 °FChilly.3 mph80%30.00 "HgN/A
10:00 am39 °FChilly.3 mph80%29.99 "HgN/A
9:00 am39 °FChilly.3 mph82%29.99 "HgN/A
8:00 am38 °FChilly.1 mph97%29.98 "HgN/A
7:00 am38 °FChilly.1 mph97%29.98 "HgN/A
6:00 am38 °FChilly.1 mph95%29.96 "HgN/A
5:00 am38 °FChilly.1 mph96%29.96 "HgN/A
4:00 am38 °FChilly.1 mph97%29.96 "HgN/A
Weather by CustomWeather, © 2017

See weather overviewHow to use our weather pages